TimeMST,TemperatureF,Dew PointF,Humidity,Sea Level PressureIn,VisibilityMPH,Wind Direction,Wind SpeedMPH,Gust SpeedMPH,PrecipitationIn,Events,Conditions,WindDirDegrees,DateUTC
12:53 AM,73.0,46.9,39,30.04,10.0,SE,13.8,-,N/A,,Clear,130,2012-09-15 07:53:00
1:53 AM,73.0,46.0,38,30.03,10.0,ESE,17.3,24.2,N/A,,Clear,120,2012-09-15 08:53:00
2:53 AM,71.1,46.0,41,30.03,10.0,SE,13.8,-,N/A,,Clear,140,2012-09-15 09:53:00
3:53 AM,70.0,46.9,44,30.03,10.0,SE,19.6,-,N/A,,Clear,140,2012-09-15 10:53:00
4:53 AM,68.0,46.9,47,30.04,10.0,East,8.1,-,N/A,,Clear,90,2012-09-15 11:53:00
5:53 AM,71.1,43.0,36,30.04,10.0,SE,11.5,18.4,N/A,,Clear,140,2012-09-15 12:53:00
6:53 AM,69.1,45.0,42,30.07,10.0,ESE,10.4,-,N/A,,Clear,120,2012-09-15 13:53:00
7:53 AM,73.0,44.1,35,30.07,10.0,ESE,8.1,-,N/A,,Clear,120,2012-09-15 14:53:00
8:53 AM,77.0,43.0,30,30.08,10.0,ESE,15.0,-,N/A,,Clear,120,2012-09-15 15:53:00
9:53 AM,81.0,39.0,22,30.07,10.0,ESE,19.6,26.5,N/A,,Clear,120,2012-09-15 16:53:00
10:53 AM,82.9,39.0,21,30.05,10.0,ESE,17.3,27.6,N/A,,Clear,120,2012-09-15 17:53:00
11:53 AM,84.9,41.0,21,30.04,10.0,ESE,16.1,26.5,N/A,,Clear,110,2012-09-15 18:53:00
12:53 PM,87.1,39.9,19,30.02,10.0,ESE,10.4,21.9,N/A,,Clear,110,2012-09-15 19:53:00
1:53 PM,88.0,39.0,18,29.99,10.0,Variable,4.6,-,N/A,,Clear,0,2012-09-15 20:53:00
2:53 PM,89.1,37.9,16,29.97,10.0,Calm,Calm,-,N/A,,Clear,0,2012-09-15 21:53:00
3:53 PM,88.0,37.0,16,29.95,10.0,WSW,4.6,-,N/A,,Clear,240,2012-09-15 22:53:00
4:53 PM,89.1,37.0,16,29.94,10.0,NNE,8.1,-,N/A,,Clear,20,2012-09-15 23:53:00
5:53 PM,87.1,37.9,18,29.94,10.0,SW,5.8,-,N/A,,Clear,220,2012-09-16 00:53:00
6:53 PM,82.9,42.1,24,29.95,10.0,WSW,3.5,-,N/A,,Clear,240,2012-09-16 01:53:00
7:53 PM,81.0,42.1,25,29.97,10.0,Calm,Calm,-,N/A,,Clear,0,2012-09-16 02:53:00
8:53 PM,77.0,46.0,33,29.99,10.0,South,3.5,-,N/A,,Clear,170,2012-09-16 03:53:00
9:53 PM,73.9,46.0,37,30.00,10.0,SSE,6.9,-,N/A,,Clear,160,2012-09-16 04:53:00
10:53 PM,72.0,44.1,37,30.00,10.0,SSE,5.8,-,N/A,,Clear,150,2012-09-16 05:53:00
11:53 PM,71.1,44.1,38,30.00,10.0,SSE,5.8,-,N/A,,Clear,150,2012-09-16 06:53:00